Location: Unspecified
(43.3830°N, 0.0000°E)
Time: 22:23:08
(UTC+00:00)

Explorer 11/Cluster Stage 4 - All Passes

Search period start: 24 June 2019 00:00
Search period end: 04 July 2019 00:00
Orbit: 467 x 1260 km, 28.8° (Epoch: 24 June)

Date Brightness Start Highest point End Pass type
(mag) Time Alt. Az. Time Alt. Az. Time Alt. Az.
01 Jul - 11:33:54 10° S 11:34:16 10° S 11:34:37 10° S daylight
02 Jul - 11:22:27 10° SSW 11:23:39 11° S 11:24:48 10° SSE daylight
03 Jul - 09:23:53 10° S 09:25:27 11° S 09:26:56 10° SSE daylight
03 Jul - 11:11:21 10° SSW 11:13:01 12° S 11:14:35 10° SSE daylight
